Regional Weather Roundup
Issued by NWS

Home | Current Version | Previous Version | Text Only | Print | Product List | Glossary On
Versions: 1 2 3 4 5 6 7 8 9 10 11 12 13 14 15 16 17 18 19 20 21 22 23 24 25 26 27 28 29 30 31 32 33 34 35 36 37 38 39 40 41 42 43 44 45 46 47 48 49 50
000
ASUS43 KLMK 222310
RWRKY
KENTUCKY REGIONAL WEATHER ROUNDUP
NATIONAL WEATHER SERVICE LOUISVILLE KY
700 PM EDT FRI SEP 22 2017

NOTE "FAIR" INDICATES FEW OR NO CLOUDS BELOW 12,000 FEET
WITH NO SIGNIFICANT WEATHER AND/OR OBSTRUCTIONS TO VISIBILITY.

KYZ001>023-026-027-061>063-070>075-230000-
WESTERN AND SOUTH CENTRAL KENTUCKY

CITY           SKY/WX    TMP DP  RH WIND       PRES   REMARKS
PADUCAH        CLEAR     88  66  48 SE5       29.98S HX  90
HENDERSON      CLEAR     87  66  49 SE5       30.01S
OWENSBORO      CLEAR     88  67  49 E7        30.01S HX  91
HOPKINSVILLE   PTCLDY    86  66  50 NE7       30.00S
BOWLING GREEN  CLEAR     85  68  56 NE6       30.01S
GLASGOW        CLEAR     82  67  59 NE3       30.02S
$$

KYZ024-025-028>034-038-045-046-053-230000-
NORTH CENTRAL KENTUCKY

CITY           SKY/WX    TMP DP  RH WIND       PRES   REMARKS
LOUISVILLE/SDF PTCLDY    87  65  47 E7        30.02S
LOUISVILLE/LOU CLEAR     86  67  52 E8        30.03S
FORT KNOX      CLEAR     84  66  55 E6        30.02S
$$

KYZ035>037-039>044-047>052-055>060-089>105-230000-
NORTHEAST KENTUCKY

CITY           SKY/WX    TMP DP  RH WIND       PRES   REMARKS
LEXINGTON      CLEAR     82  65  56 NE7       30.06S
COVINGTON      PTCLDY    82  70  66 S5        30.05S
FRANKFORT      CLEAR     85  64  49 E5        30.04S
$$

KYZ054-064>069-076>088-106>120-230000-
SOUTHEAST KENTUCKY

CITY           SKY/WX    TMP DP  RH WIND       PRES   REMARKS
JACKSON        PTCLDY    76  64  66 CALM      30.08S
LONDON         CLEAR     80  64  58 NE5       30.06S
SOMERSET       CLEAR     79  64  61 E3        30.05S
MIDDLESBORO    PTCLDY    82  67  61 N5        30.06R
MONTICELLO     PTCLDY    83  68  60 N14       30.05S
$$




USA.gov is the U.S. government's official web portal to all federal, state and local government web resources and services.